Weather in Petrovka

Russia / Orenburg Oblast     52°27′20″N   54°17′23″E
temp.,
°C
wind,
m/s
gust,
m/s
humid.,
%
clouds,
%
prec.,
mm/h
press.,
hPa
HPBL,
m
28 september, tue
tue2823:00+4ene7116233 0.0 1012716
02:00+3ne696596 0.0 1013927
05:00+3ne6107493 0.0 1014729
08:00+2ne71291100 0.0 1016671
11:00+5ene81064100 0.0 10171147
14:00+7ne7948100 0.0 10181614
17:00+9ne694398 0.0 10191637
20:00+5ne345428 0.0 102096
29 september, wed
wed2923:00+4nne5105576 0.0 1022305
02:00+2ne4872100 0.0 1023230
05:00+1nne3880100 0.0 1024226
08:000nne398017 0.0 1025280
11:00+6nne67505 0.0 1025931
14:00+8nne553710 0.0 10251578
17:00+9ne453469 0.0 10251934
20:00+5ne354529 0.0 102662
30 september, thu
thu3023:00+4ne495659 0.0 1028216
02:00+2ene116574 0.0 102813
05:00+1nne117055 0.0 102910
08:000nne22745 0.0 103016
11:00+6nne33515 0.0 1031649
14:00+9nnw3339100 0.0 10301719
17:00+9nnw34335 0.0 10291767
20:00+5nnw22445 0.0 103010
1 october, fri
fri123:00+3nw22501 0.0 103111
02:00+2w22553 0.0 103110
05:00+2w22655 0.0 103110
08:00+2w22695 0.0 103122
11:00+6w3559100 0.0 1031277
14:00+7w4762100 0.0 1031434
17:00+7wnw4865100 0.0 1030438
20:00+6w367737 0.0 1030130
2 october, sat
sat223:00+7w3778100 0.0 1030144
02:00+8w3680100 0.0 1030167
05:00+8w2484100 0.0 1030121
08:00+7wnw238679 0.0 103190
11:00+10wnw3474100 0.0 1031266
14:00+12nnw3464100 0.0 1031723
17:00+12nnw2365100 0.0 1031451
20:00+11nnw1170100 0.0 103211